Orbital Elements at Epoch 2459200.5 (2020-Dec-17.0) TDB
Reference: JPL 24 (heliocentric ecliptic J2000)
Element | Value | Uncertainty (1-sigma) | Units |
e | .02806983738942211 | 4.5147e-08 | |
a | 2.690299097608019 | 1.7303e-08 | au |
q | 2.614782839409253 | 1.1872e-07 | au |
i | 15.70378361405987 | 4.9777e-06 | deg |
node | 156.2036237248521 | 1.5732e-05 | deg |
peri | 256.4675761796196 | 9.2358e-05 | deg |
M | 145.6961669388558 | 8.8899e-05 | deg |
tp | 2458548.203720744693 (2019-Mar-05.70372074) | 0.00039926 | TDB |
period | 1611.75592649915 4.41 | 1.5549e-05 4.257e-08 | d yr |
n | .2233588808833767 | 2.1549e-09 | deg/d |
Q | 2.765815355806785 | 1.7789e-08 | au |
|
| | Orbit Determination Parameters
Additional Information
|